This demonstration page uses our WeatherBlox Daily Observations layout. Learn more.

Left ArrowRight Arrow

53.62937, 11.41316

Hourly Observations for May 30, 2016

Temp ( °F °C ) Dew Point ( °F °C ) Humidity (%) Winds ( mph kmh ) Pressure ( in mb ) Visibility ( mi km ) Precip ( " mm )
6:20 am 06:20 Mostly Sunny 63 17 59 15 88 88 NE 6 9 29.71 1006 7 11 N/A
6:50 am 06:50 Mostly Sunny 64 18 59 15 83 83 NE 9 15 29.71 1006 7 11 N/A
7:20 am 07:20 Mostly Sunny 64 18 59 15 83 83 NE 10 17 29.71 1006 7 11 N/A
7:50 am 07:50 Mostly Sunny 66 19 61 16 83 83 ENE 13 20 29.71 1006 7 11 N/A
8:20 am 08:20 Mostly Sunny 70 21 61 16 73 73 ENE 13 20 29.68 1005 7 11 N/A
8:50 am 08:50 Mostly Sunny 72 22 61 16 69 69 ENE 15 24 29.68 1005 7 11 N/A
9:20 am 09:20 Mostly Sunny 73 23 61 16 65 65 ENE 16 26 29.68 1005 7 11 N/A
9:50 am 09:50 Mostly Sunny 73 23 63 17 69 69 ENE 17 28 29.68 1005 7 11 N/A
10:20 am 10:20 Mostly Sunny 75 24 63 17 65 65 ENE 15 24 29.68 1005 7 11 N/A
10:50 am 10:50 Mostly Sunny 75 24 63 17 65 65 ENE 18 30 29.68 1005 7 11 N/A
11:20 am 11:20 Mostly Sunny 77 25 63 17 61 61 ENE 18 30 29.68 1005 7 11 N/A
11:50 am 11:50 Mostly Sunny 77 25 63 17 61 61 ENE 18 30 29.68 1005 7 11 N/A
12:20 pm 12:20 Mostly Sunny 77 25 63 17 61 61 ENE 21 33 29.68 1005 7 11 N/A
12:50 pm 12:50 Mostly Sunny 79 26 63 17 58 58 E 20 31 29.68 1005 7 11 N/A
1:20 pm 13:20 Mostly Sunny 81 27 63 17 54 54 E 21 33 29.68 1005 7 11 N/A
1:50 pm 13:50 Mostly Sunny 82 28 63 17 51 51 ENE 22 35 29.68 1005 7 11 N/A
2:20 pm 14:20 Mostly Cloudy with Showers Nearby 79 26 61 16 54 54 E 21 33 29.71 1006 30 48 N/A
2:50 pm 14:50 Mostly Sunny 75 24 61 16 61 61 E 15 24 29.68 1005 7 11 N/A
3:20 pm 15:20 Mostly Sunny 79 26 63 17 58 58 ENE 18 30 29.68 1005 7 11 N/A
3:50 pm 15:50 Mostly Sunny 79 26 61 16 54 54 E 21 33 29.68 1005 7 11 N/A
4:20 pm 16:20 Mostly Sunny 79 26 63 17 58 58 ENE 21 33 29.68 1005 7 11 N/A
4:50 pm 16:50 Mostly Cloudy with Showers Nearby 77 25 61 16 57 57 ENE 18 30 29.68 1005 30 48 N/A
5:00 pm 17:00 Windy with Storms Likely 70 21 54 12 57 57 SE 26 43 29.71 1006 30 48 N/A
5:20 pm 17:20 Mostly Cloudy with Thunderstorms 64 18 59 15 83 83 ESE 14 22 29.74 1007 4 6 N/A
5:50 pm 17:50 Mostly Cloudy with Thunderstorms 63 17 61 16 94 94 E 12 19 29.74 1007 5 8 N/A
6:50 pm 18:50 Mostly Cloudy 63 17 61 16 94 94 NE 6 9 29.71 1006 30 48 N/A

Powered by AerisWeather